Time,TemperatureF,DewpointF,PressureIn,WindDirection,WindDirectionDegrees,WindSpeedMPH,WindSpeedGustMPH,Humidity,HourlyPrecipIn,Conditions,Clouds,dailyrainin,SolarRadiationWatts/m^2,SoftwareType,DateUTC
2013-05-24 00:22:00,55.0,29.0,-100.00,SW,218,4.0,13.0,37,0.00,,,0.00,0.000000,,2013-05-24 07:22:00,
2013-05-24 00:31:00,55.0,29.0,-100.00,SW,218,4.0,13.0,37,0.00,,,0.00,0.000000,,2013-05-24 07:31:00,
2013-05-24 00:42:00,55.0,29.0,-100.00,SW,218,4.0,13.0,37,0.00,,,0.00,0.000000,,2013-05-24 07:42:00,
2013-05-24 00:52:00,55.0,29.0,-100.00,SW,218,4.0,13.0,37,0.00,,,0.00,0.000000,,2013-05-24 07:52:00,
2013-05-24 01:22:00,54.0,30.0,-100.00,North,2,8.0,11.0,39,0.00,,,0.00,0.000000,,2013-05-24 08:22:00,
2013-05-24 01:32:00,54.0,30.0,-100.00,North,2,8.0,11.0,39,0.00,,,0.00,0.000000,,2013-05-24 08:32:00,
2013-05-24 01:41:00,54.0,30.0,-100.00,North,2,8.0,11.0,39,0.00,,,0.00,0.000000,,2013-05-24 08:41:00,
2013-05-24 01:51:00,54.0,30.0,-100.00,North,2,8.0,11.0,39,0.00,,,0.00,0.000000,,2013-05-24 08:51:00,
2013-05-24 02:21:00,51.0,28.0,-100.00,North,2,7.0,10.0,40,0.00,,,0.00,0.000000,,2013-05-24 09:21:00,
2013-05-24 02:32:00,51.0,28.0,-100.00,North,2,7.0,10.0,40,0.00,,,0.00,0.000000,,2013-05-24 09:32:00,
2013-05-24 02:42:00,51.0,28.0,-100.00,North,2,7.0,10.0,40,0.00,,,0.00,0.000000,,2013-05-24 09:42:00,
2013-05-24 02:52:00,51.0,28.0,-100.00,North,2,7.0,10.0,40,0.00,,,0.00,0.000000,,2013-05-24 09:52:00,
2013-05-24 03:22:00,51.0,30.0,-100.00,North,8,10.0,14.0,44,0.00,,,0.00,0.000000,,2013-05-24 10:22:00,
2013-05-24 03:32:00,51.0,30.0,-100.00,North,8,10.0,14.0,44,0.00,,,0.00,0.000000,,2013-05-24 10:32:00,
2013-05-24 03:42:00,51.0,30.0,-100.00,North,8,10.0,14.0,44,0.00,,,0.00,0.000000,,2013-05-24 10:42:00,
2013-05-24 03:52:00,51.0,30.0,-100.00,North,8,10.0,14.0,44,0.00,,,0.00,0.000000,,2013-05-24 10:52:00,
2013-05-24 04:22:00,50.0,31.0,-100.00,NNE,12,10.0,13.0,47,0.00,,,0.00,0.000000,,2013-05-24 11:22:00,
2013-05-24 04:32:00,50.0,31.0,-100.00,NNE,12,10.0,13.0,47,0.00,,,0.00,0.000000,,2013-05-24 11:32:00,
2013-05-24 04:41:00,50.0,31.0,-100.00,NNE,12,10.0,13.0,47,0.00,,,0.00,0.000000,,2013-05-24 11:41:00,
2013-05-24 04:51:00,50.0,31.0,-100.00,NNE,12,10.0,13.0,47,0.00,,,0.00,0.000000,,2013-05-24 11:51:00,
2013-05-24 05:21:00,48.0,29.0,-100.00,North,8,9.0,14.0,47,0.00,,,0.00,0.000000,,2013-05-24 12:21:00,
2013-05-24 05:32:00,48.0,29.0,-100.00,North,8,9.0,14.0,47,0.00,,,0.00,0.000000,,2013-05-24 12:32:00,
2013-05-24 05:42:00,48.0,29.0,-100.00,North,8,9.0,14.0,47,0.00,,,0.00,0.000000,,2013-05-24 12:42:00,
2013-05-24 05:52:00,48.0,29.0,-100.00,North,8,9.0,14.0,47,0.00,,,0.00,0.000000,,2013-05-24 12:52:00,
2013-05-24 06:21:00,49.0,30.0,-100.00,North,3,9.0,15.0,48,0.00,,,0.00,1.000000,,2013-05-24 13:21:00,
2013-05-24 06:32:00,49.0,30.0,-100.00,North,3,9.0,15.0,48,0.00,,,0.00,1.000000,,2013-05-24 13:32:00,
2013-05-24 06:41:00,49.0,30.0,-100.00,North,3,9.0,15.0,48,0.00,,,0.00,1.000000,,2013-05-24 13:41:00,
2013-05-24 06:52:00,49.0,30.0,-100.00,North,3,9.0,15.0,48,0.00,,,0.00,1.000000,,2013-05-24 13:52:00,
2013-05-24 07:21:00,48.0,29.0,-100.00,North,9,8.0,11.0,48,0.00,,,0.00,20.000000,,2013-05-24 14:21:00,
2013-05-24 07:31:00,48.0,29.0,-100.00,North,9,8.0,11.0,48,0.00,,,0.00,20.000000,,2013-05-24 14:31:00,
2013-05-24 07:42:00,48.0,29.0,-100.00,North,9,8.0,11.0,48,0.00,,,0.00,20.000000,,2013-05-24 14:42:00,
2013-05-24 07:51:00,48.0,29.0,-100.00,North,9,8.0,11.0,48,0.00,,,0.00,20.000000,,2013-05-24 14:51:00,
2013-05-24 08:21:00,55.0,29.0,-100.00,SE,132,1.0,11.0,37,0.00,,,0.00,228.000000,,2013-05-24 15:21:00,
2013-05-24 08:32:00,55.0,29.0,-100.00,SE,132,1.0,11.0,37,0.00,,,0.00,228.000000,,2013-05-24 15:32:00,
2013-05-24 08:43:00,55.0,29.0,-100.00,SE,132,1.0,11.0,37,0.00,,,0.00,228.000000,,2013-05-24 15:43:00,
2013-05-24 08:52:00,55.0,29.0,-100.00,SE,132,1.0,11.0,37,0.00,,,0.00,228.000000,,2013-05-24 15:52:00,
2013-05-24 09:22:00,62.0,30.0,-100.00,SSE,159,3.0,8.0,30,0.00,,,0.00,532.000000,,2013-05-24 16:22:00,
2013-05-24 09:32:00,62.0,30.0,-100.00,SSE,159,3.0,8.0,30,0.00,,,0.00,532.000000,,2013-05-24 16:32:00,
2013-05-24 09:42:00,62.0,30.0,-100.00,SSE,159,3.0,8.0,30,0.00,,,0.00,532.000000,,2013-05-24 16:42:00,
2013-05-24 09:52:00,62.0,30.0,-100.00,SSE,159,3.0,8.0,30,0.00,,,0.00,532.000000,,2013-05-24 16:52:00,
2013-05-24 10:22:00,61.0,29.0,-100.00,South,174,8.0,14.0,29,0.00,,,0.00,748.000000,,2013-05-24 17:22:00,
2013-05-24 10:32:00,61.0,29.0,-100.00,South,174,8.0,14.0,29,0.00,,,0.00,748.000000,,2013-05-24 17:32:00,
2013-05-24 10:41:00,61.0,29.0,-100.00,South,174,8.0,14.0,29,0.00,,,0.00,748.000000,,2013-05-24 17:41:00,
2013-05-24 10:52:00,61.0,29.0,-100.00,South,174,8.0,14.0,29,0.00,,,0.00,748.000000,,2013-05-24 17:52:00,
2013-05-24 11:21:00,65.0,28.0,-100.00,South,172,10.0,16.0,25,-99.99,,,0.00,924.000000,,2013-05-24 18:21:00,
2013-05-24 11:32:00,65.0,28.0,-100.00,South,172,10.0,16.0,25,-99.99,,,0.00,924.000000,,2013-05-24 18:32:00,
2013-05-24 11:41:00,65.0,28.0,-100.00,South,172,10.0,16.0,25,-99.99,,,0.00,924.000000,,2013-05-24 18:41:00,
2013-05-24 11:51:00,65.0,28.0,-100.00,South,172,10.0,16.0,25,-99.99,,,0.00,924.000000,,2013-05-24 18:51:00,
2013-05-24 12:21:00,70.0,27.0,-100.00,South,181,10.0,16.0,20,0.00,,,0.00,1057.000000,,2013-05-24 19:21:00,
2013-05-24 12:32:00,70.0,27.0,-100.00,South,181,10.0,16.0,20,0.00,,,0.00,1057.000000,,2013-05-24 19:32:00,
2013-05-24 12:41:00,70.0,27.0,-100.00,South,181,10.0,16.0,20,0.00,,,0.00,1057.000000,,2013-05-24 19:41:00,
2013-05-24 12:52:00,70.0,27.0,-100.00,South,181,10.0,16.0,20,0.00,,,0.00,1057.000000,,2013-05-24 19:52:00,
2013-05-24 13:21:00,74.0,23.0,-100.00,South,177,13.0,18.0,15,0.00,,,0.00,1128.000000,,2013-05-24 20:21:00,
2013-05-24 13:32:00,74.0,23.0,-100.00,South,177,13.0,18.0,15,0.00,,,0.00,1128.000000,,2013-05-24 20:32:00,
2013-05-24 13:41:00,74.0,23.0,-100.00,South,177,13.0,18.0,15,0.00,,,0.00,1128.000000,,2013-05-24 20:41:00,
2013-05-24 13:51:00,74.0,23.0,-100.00,South,177,13.0,18.0,15,0.00,,,0.00,1128.000000,,2013-05-24 20:51:00,
2013-05-24 14:21:00,77.0,27.0,-100.00,SSE,166,16.0,24.0,16,0.00,,,0.00,1128.000000,,2013-05-24 21:21:00,
2013-05-24 14:32:00,77.0,27.0,-100.00,SSE,166,16.0,24.0,16,0.00,,,0.00,1128.000000,,2013-05-24 21:32:00,
2013-05-24 14:42:00,77.0,27.0,-100.00,SSE,166,16.0,24.0,16,0.00,,,0.00,1128.000000,,2013-05-24 21:42:00,
2013-05-24 14:52:00,77.0,27.0,-100.00,SSE,166,16.0,24.0,16,0.00,,,0.00,1128.000000,,2013-05-24 21:52:00,
2013-05-24 15:22:00,76.0,25.0,-100.00,SSE,165,20.0,30.0,15,0.00,,,0.00,1066.000000,,2013-05-24 22:22:00,
2013-05-24 15:33:00,76.0,25.0,-100.00,SSE,165,20.0,30.0,15,0.00,,,0.00,1066.000000,,2013-05-24 22:33:00,
2013-05-24 15:42:00,76.0,25.0,-100.00,SSE,165,20.0,30.0,15,0.00,,,0.00,1066.000000,,2013-05-24 22:42:00,
2013-05-24 15:52:00,76.0,25.0,-100.00,SSE,165,20.0,30.0,15,0.00,,,0.00,1066.000000,,2013-05-24 22:52:00,
2013-05-24 16:22:00,81.0,33.0,-100.00,South,180,12.0,25.0,18,0.00,,,0.00,913.000000,,2013-05-24 23:22:00,
2013-05-24 16:32:00,81.0,33.0,-100.00,South,180,12.0,25.0,18,0.00,,,0.00,913.000000,,2013-05-24 23:32:00,
2013-05-24 16:42:00,81.0,33.0,-100.00,South,180,12.0,25.0,18,0.00,,,0.00,913.000000,,2013-05-24 23:42:00,
2013-05-24 16:52:00,81.0,33.0,-100.00,South,180,12.0,25.0,18,0.00,,,0.00,913.000000,,2013-05-24 23:52:00,
2013-05-24 17:21:00,77.0,29.0,-100.00,NW,312,20.0,28.0,17,0.00,,,0.00,745.000000,,2013-05-25 00:21:00,
2013-05-24 17:32:00,77.0,29.0,-100.00,NW,312,20.0,28.0,17,0.00,,,0.00,745.000000,,2013-05-25 00:32:00,
2013-05-24 17:41:00,77.0,29.0,-100.00,NW,312,20.0,28.0,17,0.00,,,0.00,745.000000,,2013-05-25 00:41:00,
2013-05-24 17:51:00,77.0,29.0,-100.00,NW,312,20.0,28.0,17,0.00,,,0.00,745.000000,,2013-05-25 00:51:00,
2013-05-24 18:22:00,77.0,30.0,-100.00,WNW,301,19.0,27.0,18,0.00,,,0.00,524.000000,,2013-05-25 01:22:00,
2013-05-24 18:32:00,77.0,30.0,-100.00,WNW,301,19.0,27.0,18,0.00,,,0.00,524.000000,,2013-05-25 01:32:00,
2013-05-24 18:41:00,77.0,30.0,-100.00,WNW,301,19.0,27.0,18,0.00,,,0.00,524.000000,,2013-05-25 01:41:00,
2013-05-24 18:52:00,77.0,30.0,-100.00,WNW,301,19.0,27.0,18,0.00,,,0.00,524.000000,,2013-05-25 01:52:00,
2013-05-24 19:21:00,74.0,32.0,-100.00,West,275,12.0,29.0,21,0.00,,,0.00,288.000000,,2013-05-25 02:21:00,
2013-05-24 19:31:00,74.0,32.0,-100.00,West,275,12.0,29.0,21,0.00,,,0.00,288.000000,,2013-05-25 02:31:00,
2013-05-24 19:42:00,74.0,32.0,-100.00,West,275,12.0,29.0,21,0.00,,,0.00,288.000000,,2013-05-25 02:42:00,
2013-05-24 19:51:00,74.0,32.0,-100.00,West,275,12.0,29.0,21,0.00,,,0.00,288.000000,,2013-05-25 02:51:00,
2013-05-24 20:21:00,69.0,32.0,-100.00,NW,323,7.0,24.0,25,0.00,,,0.00,46.000000,,2013-05-25 03:21:00,
2013-05-24 20:32:00,69.0,32.0,-100.00,NW,323,7.0,24.0,25,0.00,,,0.00,46.000000,,2013-05-25 03:32:00,
2013-05-24 20:43:00,69.0,32.0,-100.00,NW,323,7.0,24.0,25,0.00,,,0.00,46.000000,,2013-05-25 03:43:00,
2013-05-24 20:53:00,69.0,32.0,-100.00,NW,323,7.0,24.0,25,0.00,,,0.00,46.000000,,2013-05-25 03:53:00,
2013-05-24 21:23:00,66.0,32.0,-100.00,SW,226,2.0,19.0,28,0.00,,,0.00,0.000000,,2013-05-25 04:23:00,
2013-05-24 21:33:00,66.0,32.0,-100.00,SW,226,2.0,19.0,28,0.00,,,0.00,0.000000,,2013-05-25 04:33:00,
2013-05-24 21:43:00,66.0,32.0,-100.00,SW,226,2.0,19.0,28,0.00,,,0.00,0.000000,,2013-05-25 04:43:00,
2013-05-24 21:52:00,66.0,32.0,-100.00,SW,226,2.0,19.0,28,0.00,,,0.00,0.000000,,2013-05-25 04:52:00,
2013-05-24 22:22:00,63.0,32.0,-100.00,SSE,161,8.0,12.0,31,0.00,,,0.00,0.000000,,2013-05-25 05:22:00,
2013-05-24 22:32:00,63.0,32.0,-100.00,SSE,161,8.0,12.0,31,0.00,,,0.00,0.000000,,2013-05-25 05:32:00,
2013-05-24 22:42:00,63.0,32.0,-100.00,SSE,161,8.0,12.0,31,0.00,,,0.00,0.000000,,2013-05-25 05:42:00,
2013-05-24 22:52:00,63.0,32.0,-100.00,SSE,161,8.0,12.0,31,0.00,,,0.00,0.000000,,2013-05-25 05:52:00,
2013-05-24 23:21:00,61.0,32.0,-100.00,South,170,4.0,10.0,33,0.00,,,0.00,0.000000,,2013-05-25 06:21:00,
2013-05-24 23:32:00,61.0,32.0,-100.00,South,170,4.0,10.0,33,0.00,,,0.00,0.000000,,2013-05-25 06:32:00,
2013-05-24 23:42:00,61.0,32.0,-100.00,South,170,4.0,10.0,33,0.00,,,0.00,0.000000,,2013-05-25 06:42:00,
2013-05-24 23:52:00,61.0,32.0,-100.00,South,170,4.0,10.0,33,0.00,,,0.00,0.000000,,2013-05-25 06:52:00,